{"data":{"norad_id":63123,"intl_designator":"2025-039V","name":"STARLINK-32948","alt_names":[],"object_type":"PAYLOAD","status":"ACTIVE","operator":null,"country":"US","launch_date":"2025-02-27","launch_site_code":"AFETR","launch_vehicle":null,"mission":null,"orbit_class":"UNKNOWN","rcs_meters":null,"size_class":null,"mass_kg":null,"dimensions":null,"purposes":["comms"],"wikipedia_slug":null,"has_3d_model":false,"image_url":null,"decayed_at":null,"tle_current":{"epoch":"2026-09-21T13:33:20.257056Z","epoch_age_seconds":70305,"freshness":"FRESH","line1":"1 63123U 25039V   26264.56481779  .00009308  00000+0  34727-3 0  9996","line2":"2 63123  43.0014 346.5549 0001481 265.9431  94.1252 15.27585832 88026","mean_motion":15.27585832,"eccentricity":0.0001481,"inclination_deg":43.0014,"raan_deg":346.5549,"arg_perigee_deg":265.9431,"mean_anomaly_deg":94.1252,"bstar":0.00034727,"rev_number":8802,"period_min":94.266388823119,"perigee_km":482.01549391462,"apogee_km":484.04777206371,"semimajor_km":6861.1686329892,"source":"CELESTRAK","updated_at":"2026-09-22T09:00:49.789138Z"}}}